Time,TemperatureF,DewpointF,PressureIn,WindDirection,WindDirectionDegrees,WindSpeedMPH,WindSpeedGustMPH,Humidity,HourlyPrecipIn,Conditions,Clouds,dailyrainin,SoftwareType,DateUTC
2013-01-25 00:00:00,52.4,51.3,30.29,West,272,0.0,0.0,96,0.00,,---,0.00,VWS V14.01,2013-01-25 05:00:00,
2013-01-25 00:01:00,52.4,51.3,30.29,West,273,0.0,0.0,96,0.00,,---,0.00,VWS V14.01,2013-01-25 05:01:00,
2013-01-25 00:02:00,52.5,51.1,30.29,West,272,0.0,0.0,95,0.00,,---,0.00,VWS V14.01,2013-01-25 05:02:00,
2013-01-25 00:07:00,52.6,51.5,30.29,West,272,0.0,0.0,96,0.00,,---,0.00,VWS V14.01,2013-01-25 05:07:00,
2013-01-25 00:10:00,52.7,51.6,30.29,West,272,0.0,0.0,96,0.00,,---,0.00,VWS V14.01,2013-01-25 05:10:00,
2013-01-25 00:12:00,52.8,51.7,30.29,West,273,0.0,0.0,96,0.00,,---,0.00,VWS V14.01,2013-01-25 05:12:00,
2013-01-25 00:17:00,53.0,51.9,30.28,West,273,0.0,0.0,96,0.00,,---,0.00,VWS V14.01,2013-01-25 05:17:00,
2013-01-25 00:20:00,52.9,51.8,30.28,West,272,0.0,0.0,96,0.00,,---,0.00,VWS V14.01,2013-01-25 05:20:00,
2013-01-25 00:22:00,52.8,51.4,30.29,West,272,0.0,0.0,95,0.00,,---,0.00,VWS V14.01,2013-01-25 05:22:00,
2013-01-25 00:27:00,52.7,51.6,30.29,West,273,0.0,0.0,96,0.00,,---,0.00,VWS V14.01,2013-01-25 05:27:00,
2013-01-25 00:30:00,52.7,51.3,30.28,West,272,0.0,0.0,95,0.00,,---,0.00,VWS V14.01,2013-01-25 05:30:00,
2013-01-25 00:32:00,52.4,51.0,30.28,West,272,0.0,0.0,95,0.00,,---,0.00,VWS V14.01,2013-01-25 05:32:00,
2013-01-25 00:37:00,52.2,50.8,30.28,West,273,0.0,0.0,95,0.00,,---,0.00,VWS V14.01,2013-01-25 05:37:00,
2013-01-25 00:40:00,52.2,50.8,30.28,West,273,0.0,0.0,95,0.00,,---,0.00,VWS V14.01,2013-01-25 05:40:00,
2013-01-25 00:42:00,52.0,50.6,30.28,West,273,0.0,0.0,95,0.00,,---,0.00,VWS V14.01,2013-01-25 05:42:00,
2013-01-25 00:47:00,51.8,50.4,30.28,West,273,0.0,0.0,95,0.00,,---,0.00,VWS V14.01,2013-01-25 05:47:00,
2013-01-25 00:50:00,51.8,50.7,30.28,West,273,0.0,0.0,96,0.00,,---,0.00,VWS V14.01,2013-01-25 05:50:00,
2013-01-25 00:52:00,51.6,50.2,30.27,West,272,0.0,0.0,95,0.00,,---,0.00,VWS V14.01,2013-01-25 05:52:00,
2013-01-25 00:57:00,51.4,50.0,30.27,West,272,0.0,0.0,95,0.00,,---,0.00,VWS V14.01,2013-01-25 05:57:00,
2013-01-25 01:00:00,51.4,50.0,30.27,West,272,0.0,0.0,95,0.00,,---,0.00,VWS V14.01,2013-01-25 06:00:00,
2013-01-25 01:02:00,51.2,50.1,30.27,West,272,0.0,0.0,96,0.00,,---,0.00,VWS V14.01,2013-01-25 06:02:00,
2013-01-25 01:07:00,51.0,49.9,30.28,West,273,0.0,0.0,96,0.00,,---,0.00,VWS V14.01,2013-01-25 06:07:00,
2013-01-25 01:10:00,51.0,49.9,30.28,West,272,0.0,0.0,96,0.00,,---,0.00,VWS V14.01,2013-01-25 06:10:00,
2013-01-25 01:12:00,50.9,49.8,30.28,West,272,0.0,0.0,96,0.00,,---,0.00,VWS V14.01,2013-01-25 06:12:00,
2013-01-25 01:17:00,50.7,49.6,30.28,West,272,0.0,0.0,96,0.00,,---,0.00,VWS V14.01,2013-01-25 06:17:00,
2013-01-25 01:20:00,50.5,49.4,30.28,West,272,0.0,0.0,96,0.00,,---,0.00,VWS V14.01,2013-01-25 06:20:00,
2013-01-25 01:22:00,50.4,49.3,30.28,West,273,0.0,0.0,96,0.00,,---,0.00,VWS V14.01,2013-01-25 06:22:00,
2013-01-25 01:27:00,50.2,49.1,30.28,West,273,0.0,0.0,96,0.00,,---,0.00,VWS V14.01,2013-01-25 06:27:00,
2013-01-25 01:30:00,50.1,49.0,30.28,West,272,0.0,0.0,96,0.00,,---,0.00,VWS V14.01,2013-01-25 06:30:00,
2013-01-25 01:32:00,50.1,49.0,30.28,West,273,0.0,0.0,96,0.00,,---,0.00,VWS V14.01,2013-01-25 06:32:00,
2013-01-25 01:37:00,50.0,48.9,30.28,West,272,0.0,0.0,96,0.00,,---,0.00,VWS V14.01,2013-01-25 06:37:00,
2013-01-25 01:40:00,50.0,48.9,30.28,West,272,0.0,0.0,96,0.00,,---,0.00,VWS V14.01,2013-01-25 06:40:00,
2013-01-25 01:42:00,49.9,48.8,30.28,West,272,0.0,0.0,96,0.00,,---,0.00,VWS V14.01,2013-01-25 06:42:00,
2013-01-25 01:47:00,50.0,48.9,30.28,West,273,0.0,0.0,96,0.00,,---,0.00,VWS V14.01,2013-01-25 06:47:00,
2013-01-25 01:50:00,50.0,48.9,30.28,West,273,0.0,0.0,96,0.00,,---,0.00,VWS V14.01,2013-01-25 06:50:00,
2013-01-25 01:52:00,49.9,48.8,30.28,West,273,0.0,0.0,96,0.00,,---,0.00,VWS V14.01,2013-01-25 06:52:00,
2013-01-25 01:57:00,49.9,48.8,30.28,West,272,0.0,0.0,96,0.00,,---,0.00,VWS V14.01,2013-01-25 06:57:00,
2013-01-25 02:00:00,50.0,49.2,30.28,West,273,0.0,0.0,97,0.00,,---,0.00,VWS V14.01,2013-01-25 07:00:00,
2013-01-25 02:02:00,50.1,49.3,30.28,West,273,0.0,0.0,97,0.00,,---,0.00,VWS V14.01,2013-01-25 07:02:00,
2013-01-25 02:07:00,50.0,48.9,30.28,West,273,0.0,0.0,96,0.00,,---,0.00,VWS V14.01,2013-01-25 07:07:00,
2013-01-25 02:10:00,49.9,48.8,30.28,West,272,0.0,0.0,96,0.00,,---,0.00,VWS V14.01,2013-01-25 07:10:00,
2013-01-25 02:12:00,49.7,48.6,30.28,West,273,0.0,0.0,96,0.00,,---,0.00,VWS V14.01,2013-01-25 07:12:00,
2013-01-25 02:17:00,49.5,48.4,30.27,West,273,0.0,0.0,96,0.00,,---,0.00,VWS V14.01,2013-01-25 07:17:00,
2013-01-25 02:20:00,49.4,48.3,30.27,West,273,0.0,0.0,96,0.00,,---,0.00,VWS V14.01,2013-01-25 07:20:00,
2013-01-25 02:22:00,49.3,48.2,30.27,West,273,0.0,0.0,96,0.00,,---,0.00,VWS V14.01,2013-01-25 07:22:00,
2013-01-25 02:27:00,49.1,48.0,30.27,West,273,0.0,0.0,96,0.00,,---,0.00,VWS V14.01,2013-01-25 07:27:00,
2013-01-25 02:30:00,49.1,48.0,30.27,West,273,0.0,0.0,96,0.00,,---,0.00,VWS V14.01,2013-01-25 07:30:00,
2013-01-25 02:32:00,49.4,48.6,30.27,West,273,0.0,0.0,97,0.00,,---,0.00,VWS V14.01,2013-01-25 07:32:00,
2013-01-25 02:37:00,49.5,48.7,30.27,West,272,0.0,0.0,97,0.00,,---,0.00,VWS V14.01,2013-01-25 07:37:00,
2013-01-25 02:40:00,49.5,48.7,30.27,West,272,0.0,0.0,97,0.00,,---,0.00,VWS V14.01,2013-01-25 07:40:00,
2013-01-25 02:42:00,49.4,48.3,30.27,West,272,0.0,0.0,96,0.00,,---,0.00,VWS V14.01,2013-01-25 07:42:00,
2013-01-25 02:47:00,49.3,48.2,30.27,West,272,0.0,0.0,96,0.00,,---,0.00,VWS V14.01,2013-01-25 07:47:00,
2013-01-25 02:50:00,49.3,48.2,30.27,West,273,0.0,0.0,96,0.00,,---,0.00,VWS V14.01,2013-01-25 07:50:00,
2013-01-25 02:52:00,49.2,48.1,30.27,West,273,0.0,0.0,96,0.00,,---,0.00,VWS V14.01,2013-01-25 07:52:00,
2013-01-25 02:57:00,48.9,47.8,30.27,West,273,0.0,0.0,96,0.00,,---,0.00,VWS V14.01,2013-01-25 07:57:00,
2013-01-25 03:00:00,48.8,47.7,30.27,West,273,0.0,0.0,96,0.00,,---,0.00,VWS V14.01,2013-01-25 08:00:00,
2013-01-25 03:03:00,48.9,47.8,30.27,West,273,0.0,0.0,96,0.00,,---,0.00,VWS V14.01,2013-01-25 08:03:00,
2013-01-25 03:08:00,48.8,47.7,30.27,West,272,0.0,0.0,96,0.00,,---,0.00,VWS V14.01,2013-01-25 08:08:00,
2013-01-25 03:10:00,48.8,47.7,30.27,West,273,0.0,0.0,96,0.00,,---,0.00,VWS V14.01,2013-01-25 08:10:00,
2013-01-25 03:13:00,48.6,47.5,30.26,West,272,0.0,0.0,96,0.00,,---,0.00,VWS V14.01,2013-01-25 08:13:00,
2013-01-25 03:18:00,48.5,47.4,30.26,West,272,0.0,0.0,96,0.00,,---,0.00,VWS V14.01,2013-01-25 08:18:00,
2013-01-25 03:20:00,48.5,47.7,30.26,West,272,0.0,0.0,97,0.00,,---,0.00,VWS V14.01,2013-01-25 08:20:00,
2013-01-25 03:23:00,48.7,47.9,30.26,West,273,0.0,0.0,97,0.00,,---,0.00,VWS V14.01,2013-01-25 08:23:00,
2013-01-25 03:28:00,48.6,47.8,30.26,West,272,0.0,0.0,97,0.00,,---,0.00,VWS V14.01,2013-01-25 08:28:00,
2013-01-25 03:30:00,48.6,47.8,30.26,West,272,0.0,0.0,97,0.00,,---,0.00,VWS V14.01,2013-01-25 08:30:00,
2013-01-25 03:33:00,48.6,47.8,30.26,West,272,0.0,0.0,97,0.00,,---,0.00,VWS V14.01,2013-01-25 08:33:00,
2013-01-25 03:38:00,48.7,47.9,30.26,West,273,0.0,0.0,97,0.00,,---,0.00,VWS V14.01,2013-01-25 08:38:00,
2013-01-25 03:40:00,48.8,48.0,30.26,West,273,0.0,1.0,97,0.00,,---,0.00,VWS V14.01,2013-01-25 08:40:00,
2013-01-25 03:43:00,49.3,48.5,30.26,West,272,0.0,1.0,97,0.00,,---,0.00,VWS V14.01,2013-01-25 08:43:00,
2013-01-25 03:48:00,49.7,48.9,30.26,West,272,0.0,1.0,97,0.00,,---,0.00,VWS V14.01,2013-01-25 08:48:00,
2013-01-25 03:50:00,49.8,49.0,30.26,West,273,0.0,1.0,97,0.00,,---,0.00,VWS V14.01,2013-01-25 08:50:00,
2013-01-25 03:53:00,50.1,49.3,30.26,West,272,0.0,0.0,97,0.00,,---,0.00,VWS V14.01,2013-01-25 08:53:00,
2013-01-25 03:58:00,50.2,49.4,30.26,West,273,0.0,0.0,97,0.00,,---,0.00,VWS V14.01,2013-01-25 08:58:00,
2013-01-25 04:00:00,50.2,49.4,30.26,West,272,0.0,0.0,97,0.00,,---,0.00,VWS V14.01,2013-01-25 09:00:00,
2013-01-25 04:03:00,50.3,49.5,30.26,West,273,0.0,0.0,97,0.00,,---,0.00,VWS V14.01,2013-01-25 09:03:00,
2013-01-25 04:08:00,50.3,49.5,30.27,West,273,0.0,0.0,97,0.00,,---,0.00,VWS V14.01,2013-01-25 09:08:00,
2013-01-25 04:10:00,50.4,49.6,30.27,West,272,0.0,0.0,97,0.00,,---,0.00,VWS V14.01,2013-01-25 09:10:00,
2013-01-25 04:13:00,50.6,49.8,30.27,West,266,0.0,0.0,97,0.00,,---,0.00,VWS V14.01,2013-01-25 09:13:00,
2013-01-25 04:18:00,50.8,50.0,30.27,West,266,0.0,0.0,97,0.00,,---,0.00,VWS V14.01,2013-01-25 09:18:00,
2013-01-25 04:20:00,50.8,50.0,30.27,West,266,0.0,0.0,97,0.00,,---,0.00,VWS V14.01,2013-01-25 09:20:00,
2013-01-25 04:23:00,50.8,50.0,30.27,West,266,0.0,0.0,97,0.00,,---,0.00,VWS V14.01,2013-01-25 09:23:00,
2013-01-25 04:28:00,50.8,50.0,30.27,West,266,0.0,0.0,97,0.00,,---,0.00,VWS V14.01,2013-01-25 09:28:00,
2013-01-25 04:30:00,50.8,50.0,30.27,West,271,0.0,1.0,97,0.00,,---,0.00,VWS V14.01,2013-01-25 09:30:00,
2013-01-25 04:33:00,50.7,49.9,30.27,West,271,0.0,0.0,97,0.00,,---,0.00,VWS V14.01,2013-01-25 09:33:00,
2013-01-25 04:38:00,50.7,49.9,30.27,West,270,0.0,0.0,97,0.00,,---,0.00,VWS V14.01,2013-01-25 09:38:00,
2013-01-25 04:40:00,50.7,49.9,30.27,West,270,0.0,0.0,97,0.00,,---,0.00,VWS V14.01,2013-01-25 09:40:00,
2013-01-25 04:43:00,50.6,49.8,30.27,West,263,0.0,0.0,97,0.00,,---,0.00,VWS V14.01,2013-01-25 09:43:00,
2013-01-25 04:48:00,50.5,49.7,30.27,West,263,0.0,0.0,97,0.00,,---,0.00,VWS V14.01,2013-01-25 09:48:00,
2013-01-25 04:50:00,50.5,49.7,30.27,West,263,0.0,0.0,97,0.00,,---,0.00,VWS V14.01,2013-01-25 09:50:00,
2013-01-25 04:54:00,50.5,49.7,30.27,West,263,0.0,0.0,97,0.00,,---,0.00,VWS V14.01,2013-01-25 09:54:00,
2013-01-25 04:59:00,50.4,49.6,30.27,West,263,0.0,0.0,97,0.00,,---,0.00,VWS V14.01,2013-01-25 09:59:00,
2013-01-25 05:00:00,50.4,49.6,30.27,West,263,0.0,0.0,97,0.00,,---,0.00,VWS V14.01,2013-01-25 10:00:00,
2013-01-25 05:04:00,50.2,49.4,30.27,West,263,0.0,0.0,97,0.00,,---,0.00,VWS V14.01,2013-01-25 10:04:00,
2013-01-25 05:09:00,50.1,49.3,30.27,West,263,0.0,0.0,97,0.00,,---,0.00,VWS V14.01,2013-01-25 10:09:00,
2013-01-25 05:10:00,50.1,49.3,30.27,West,263,0.0,0.0,97,0.00,,---,0.00,VWS V14.01,2013-01-25 10:10:00,
2013-01-25 05:14:00,49.9,49.1,30.27,West,263,0.0,0.0,97,0.00,,---,0.00,VWS V14.01,2013-01-25 10:14:00,
2013-01-25 05:19:00,49.8,49.0,30.27,West,263,0.0,0.0,97,0.00,,---,0.00,VWS V14.01,2013-01-25 10:19:00,
2013-01-25 05:20:00,49.8,49.0,30.27,West,263,0.0,0.0,97,0.00,,---,0.00,VWS V14.01,2013-01-25 10:20:00,
2013-01-25 05:24:00,49.6,48.8,30.27,West,263,0.0,0.0,97,0.00,,---,0.00,VWS V14.01,2013-01-25 10:24:00,
2013-01-25 05:29:00,49.3,48.5,30.27,West,263,0.0,0.0,97,0.00,,---,0.00,VWS V14.01,2013-01-25 10:29:00,
2013-01-25 05:30:00,49.3,48.5,30.27,West,263,0.0,0.0,97,0.00,,---,0.00,VWS V14.01,2013-01-25 10:30:00,
2013-01-25 05:34:00,49.1,48.3,30.27,West,263,0.0,0.0,97,0.00,,---,0.00,VWS V14.01,2013-01-25 10:34:00,
2013-01-25 05:39:00,48.8,48.0,30.28,West,263,0.0,0.0,97,0.00,,---,0.00,VWS V14.01,2013-01-25 10:39:00,
2013-01-25 05:40:00,48.8,48.0,30.28,West,263,0.0,0.0,97,0.00,,---,0.00,VWS V14.01,2013-01-25 10:40:00,
2013-01-25 05:44:00,48.6,47.8,30.27,West,263,0.0,0.0,97,0.00,,---,0.00,VWS V14.01,2013-01-25 10:44:00,
2013-01-25 05:49:00,48.3,47.5,30.28,West,263,0.0,0.0,97,0.00,,---,0.00,VWS V14.01,2013-01-25 10:49:00,
2013-01-25 05:50:00,48.3,47.5,30.28,West,263,0.0,0.0,97,0.00,,---,0.00,VWS V14.01,2013-01-25 10:50:00,
2013-01-25 05:54:00,48.2,47.4,30.28,West,264,0.0,0.0,97,0.00,,---,0.00,VWS V14.01,2013-01-25 10:54:00,
2013-01-25 05:59:00,48.1,47.3,30.28,West,263,0.0,0.0,97,0.00,,---,0.00,VWS V14.01,2013-01-25 10:59:00,
2013-01-25 06:00:00,48.1,47.3,30.28,West,263,0.0,0.0,97,0.00,,---,0.00,VWS V14.01,2013-01-25 11:00:00,
2013-01-25 06:04:00,48.0,47.2,30.29,West,263,0.0,0.0,97,0.00,,---,0.00,VWS V14.01,2013-01-25 11:04:00,
2013-01-25 06:09:00,47.9,47.1,30.29,West,263,0.0,0.0,97,0.00,,---,0.00,VWS V14.01,2013-01-25 11:09:00,
2013-01-25 06:10:00,47.9,47.1,30.29,West,263,0.0,0.0,97,0.00,,---,0.00,VWS V14.01,2013-01-25 11:10:00,
2013-01-25 06:14:00,48.0,47.2,30.29,West,263,0.0,0.0,97,0.00,,---,0.00,VWS V14.01,2013-01-25 11:14:00,
2013-01-25 06:19:00,48.3,47.5,30.29,West,263,0.0,0.0,97,0.00,,---,0.00,VWS V14.01,2013-01-25 11:19:00,
2013-01-25 06:20:00,48.3,47.5,30.29,West,263,0.0,0.0,97,0.00,,---,0.00,VWS V14.01,2013-01-25 11:20:00,
2013-01-25 06:24:00,48.5,48.0,30.29,West,263,0.0,0.0,98,0.00,,---,0.00,VWS V14.01,2013-01-25 11:24:00,
2013-01-25 06:29:00,48.9,48.4,30.30,West,263,0.0,0.0,98,0.00,,---,0.00,VWS V14.01,2013-01-25 11:29:00,
2013-01-25 06:30:00,48.9,48.4,30.30,West,263,0.0,0.0,98,0.00,,---,0.00,VWS V14.01,2013-01-25 11:30:00,
2013-01-25 06:34:00,49.2,48.7,30.30,West,263,0.0,0.0,98,0.00,,---,0.00,VWS V14.01,2013-01-25 11:34:00,
2013-01-25 06:39:00,49.3,48.8,30.30,West,263,0.0,0.0,98,0.00,,---,0.00,VWS V14.01,2013-01-25 11:39:00,
2013-01-25 06:40:00,49.3,48.8,30.30,West,263,0.0,0.0,98,0.00,,---,0.00,VWS V14.01,2013-01-25 11:40:00,
2013-01-25 06:44:00,49.5,49.0,30.30,West,263,0.0,0.0,98,0.00,,---,0.00,VWS V14.01,2013-01-25 11:44:00,
2013-01-25 06:49:00,49.6,49.1,30.30,West,263,0.0,0.0,98,0.00,,---,0.00,VWS V14.01,2013-01-25 11:49:00,
2013-01-25 06:50:00,49.6,49.1,30.30,West,263,0.0,0.0,98,0.00,,---,0.00,VWS V14.01,2013-01-25 11:50:00,
2013-01-25 06:54:00,49.7,49.2,30.30,West,263,0.0,0.0,98,0.00,,---,0.00,VWS V14.01,2013-01-25 11:54:00,
2013-01-25 06:59:00,49.7,49.2,30.30,West,263,0.0,0.0,98,0.00,,---,0.00,VWS V14.01,2013-01-25 11:59:00,
2013-01-25 07:00:00,49.7,49.2,30.30,West,263,0.0,0.0,98,0.00,,---,0.00,VWS V14.01,2013-01-25 12:00:00,
2013-01-25 07:04:00,49.7,49.2,30.30,West,263,0.0,0.0,98,0.00,,---,0.00,VWS V14.01,2013-01-25 12:04:00,
2013-01-25 07:09:00,49.7,49.2,30.30,West,263,0.0,0.0,98,0.00,,---,0.00,VWS V14.01,2013-01-25 12:09:00,
2013-01-25 07:10:00,49.7,49.2,30.30,West,263,0.0,0.0,98,0.00,,---,0.00,VWS V14.01,2013-01-25 12:10:00,
2013-01-25 07:14:00,49.7,48.9,30.29,West,263,0.0,0.0,97,0.00,,---,0.00,VWS V14.01,2013-01-25 12:14:00,
2013-01-25 07:19:00,49.6,48.8,30.30,West,263,0.0,0.0,97,0.00,,---,0.00,VWS V14.01,2013-01-25 12:19:00,
2013-01-25 07:20:00,49.6,48.8,30.30,West,263,0.0,0.0,97,0.00,,---,0.00,VWS V14.01,2013-01-25 12:20:00,
2013-01-25 07:24:00,49.5,48.7,30.30,West,263,0.0,0.0,97,0.00,,---,0.00,VWS V14.01,2013-01-25 12:24:00,
2013-01-25 07:29:00,49.5,48.7,30.30,West,262,0.0,0.0,97,0.00,,---,0.00,VWS V14.01,2013-01-25 12:29:00,
2013-01-25 07:30:00,49.5,48.7,30.30,West,263,0.0,0.0,97,0.00,,---,0.00,VWS V14.01,2013-01-25 12:30:00,
2013-01-25 07:34:00,49.6,48.8,30.30,West,263,0.0,0.0,97,0.00,,---,0.00,VWS V14.01,2013-01-25 12:34:00,
2013-01-25 07:39:00,49.6,49.1,30.30,West,263,0.0,0.0,98,0.00,,---,0.00,VWS V14.01,2013-01-25 12:39:00,
2013-01-25 07:40:00,49.6,49.1,30.30,West,263,0.0,0.0,98,0.00,,---,0.00,VWS V14.01,2013-01-25 12:40:00,
2013-01-25 07:44:00,49.7,49.2,30.30,West,263,0.0,0.0,98,0.00,,---,0.00,VWS V14.01,2013-01-25 12:44:00,
2013-01-25 07:49:00,49.7,49.2,30.30,West,263,0.0,0.0,98,0.00,,---,0.00,VWS V14.01,2013-01-25 12:49:00,
2013-01-25 07:50:00,49.8,49.3,30.30,West,263,0.0,0.0,98,0.00,,---,0.00,VWS V14.01,2013-01-25 12:50:00,
2013-01-25 07:54:00,49.9,49.4,30.30,West,263,0.0,0.0,98,0.00,,---,0.00,VWS V14.01,2013-01-25 12:54:00,
2013-01-25 07:59:00,50.1,49.6,30.30,West,263,0.0,0.0,98,0.00,,---,0.00,VWS V14.01,2013-01-25 12:59:00,
2013-01-25 08:00:00,50.1,49.6,30.30,West,263,0.0,0.0,98,0.00,,---,0.00,VWS V14.01,2013-01-25 13:00:00,
2013-01-25 08:04:00,50.3,49.8,30.30,West,263,0.0,0.0,98,0.00,,---,0.00,VWS V14.01,2013-01-25 13:04:00,
2013-01-25 08:09:00,50.7,50.2,30.30,West,263,0.0,0.0,98,0.00,,---,0.00,VWS V14.01,2013-01-25 13:09:00,
2013-01-25 08:10:00,50.7,50.2,30.30,West,263,0.0,0.0,98,0.00,,---,0.00,VWS V14.01,2013-01-25 13:10:00,
2013-01-25 08:14:00,51.4,50.9,30.30,West,263,0.0,0.0,98,0.00,,---,0.00,VWS V14.01,2013-01-25 13:14:00,
2013-01-25 08:19:00,51.7,51.2,30.30,West,263,0.0,0.0,98,0.00,,---,0.00,VWS V14.01,2013-01-25 13:19:00,
2013-01-25 08:20:00,51.7,51.2,30.30,West,263,0.0,0.0,98,0.00,,---,0.00,VWS V14.01,2013-01-25 13:20:00,
2013-01-25 08:24:00,52.0,51.5,30.31,West,263,0.0,0.0,98,0.00,,---,0.00,VWS V14.01,2013-01-25 13:24:00,
2013-01-25 08:29:00,52.1,51.5,30.31,West,263,0.0,0.0,98,0.00,,---,0.00,VWS V14.01,2013-01-25 13:29:00,
2013-01-25 08:30:00,52.1,51.6,30.31,West,263,0.0,0.0,98,0.00,,---,0.00,VWS V14.01,2013-01-25 13:30:00,
2013-01-25 08:34:00,52.4,51.8,30.31,West,263,0.0,0.0,98,0.00,,---,0.00,VWS V14.01,2013-01-25 13:34:00,
2013-01-25 08:39:00,53.1,52.5,30.31,West,263,0.0,0.0,98,0.00,,---,0.00,VWS V14.01,2013-01-25 13:39:00,
2013-01-25 08:40:00,53.0,52.5,30.31,West,263,0.0,0.0,98,0.00,,---,0.00,VWS V14.01,2013-01-25 13:40:00,
2013-01-25 08:44:00,53.8,53.2,30.31,East,82,0.0,0.0,98,0.00,,---,0.00,VWS V14.01,2013-01-25 13:44:00,
2013-01-25 08:49:00,54.2,53.7,30.31,East,98,0.0,0.0,98,0.00,,---,0.00,VWS V14.01,2013-01-25 13:49:00,
2013-01-25 08:50:00,54.1,53.5,30.31,East,98,0.0,0.0,98,0.00,,---,0.00,VWS V14.01,2013-01-25 13:50:00,
2013-01-25 08:54:00,54.6,54.0,30.31,East,96,0.0,0.0,98,0.00,,---,0.00,VWS V14.01,2013-01-25 13:54:00,
2013-01-25 08:59:00,55.1,54.5,30.31,East,96,0.0,0.0,98,0.00,,---,0.00,VWS V14.01,2013-01-25 13:59:00,
2013-01-25 09:00:00,55.0,54.5,30.31,ESE,103,0.0,0.0,98,0.00,,---,0.00,VWS V14.01,2013-01-25 14:00:00,
2013-01-25 09:04:00,55.2,54.7,30.30,WSW,242,0.0,1.0,98,0.00,,---,0.00,VWS V14.01,2013-01-25 14:04:00,
2013-01-25 09:09:00,55.7,54.9,30.31,SE,139,1.0,3.0,97,0.00,,---,0.00,VWS V14.01,2013-01-25 14:09:00,
2013-01-25 09:10:00,55.7,54.9,30.30,East,86,1.0,2.0,97,0.00,,---,0.00,VWS V14.01,2013-01-25 14:10:00,
2013-01-25 09:14:00,56.2,55.4,30.31,NE,56,2.0,3.0,97,0.00,,---,0.00,VWS V14.01,2013-01-25 14:14:00,
2013-01-25 09:19:00,56.9,56.1,30.30,East,86,1.0,1.0,97,0.00,,---,0.00,VWS V14.01,2013-01-25 14:19:00,
2013-01-25 09:20:00,56.8,56.0,30.30,East,91,1.0,3.0,97,0.00,,---,0.00,VWS V14.01,2013-01-25 14:20:00,
2013-01-25 09:24:00,57.5,56.4,30.31,East,91,1.0,3.0,96,0.00,,---,0.00,VWS V14.01,2013-01-25 14:24:00,
2013-01-25 09:29:00,58.2,56.8,30.31,East,81,0.0,1.0,95,0.00,,---,0.00,VWS V14.01,2013-01-25 14:29:00,
2013-01-25 09:30:00,58.2,56.8,30.31,ENE,71,0.0,3.0,95,0.00,,---,0.00,VWS V14.01,2013-01-25 14:30:00,
2013-01-25 09:34:00,58.9,56.9,30.31,ENE,74,1.0,3.0,93,0.00,,---,0.00,VWS V14.01,2013-01-25 14:34:00,
2013-01-25 09:39:00,59.3,56.7,30.31,East,79,0.0,1.0,91,0.00,,---,0.00,VWS V14.01,2013-01-25 14:39:00,
2013-01-25 09:40:00,59.3,56.7,30.31,East,79,1.0,3.0,91,0.00,,---,0.00,VWS V14.01,2013-01-25 14:40:00,
2013-01-25 09:44:00,60.1,56.8,30.32,East,80,0.0,3.0,89,0.00,,---,0.00,VWS V14.01,2013-01-25 14:44:00,
2013-01-25 09:49:00,60.9,57.3,30.32,ENE,74,3.0,3.0,88,0.00,,---,0.00,VWS V14.01,2013-01-25 14:49:00,
2013-01-25 09:50:00,60.8,57.2,30.31,ENE,78,2.0,4.0,88,0.00,,---,0.00,VWS V14.01,2013-01-25 14:50:00,
2013-01-25 09:54:00,61.3,57.1,30.32,ENE,72,0.0,3.0,86,0.00,,---,0.00,VWS V14.01,2013-01-25 14:54:00,
2013-01-25 09:59:00,61.8,57.6,30.32,East,80,1.0,1.0,86,0.00,,---,0.00,VWS V14.01,2013-01-25 14:59:00,
2013-01-25 10:00:00,61.8,57.6,30.32,East,82,0.0,3.0,86,0.00,,---,0.00,VWS V14.01,2013-01-25 15:00:00,
2013-01-25 10:04:00,62.6,57.7,30.32,NE,41,0.0,2.0,84,0.00,,---,0.00,VWS V14.01,2013-01-25 15:04:00,
2013-01-25 10:09:00,63.6,58.3,30.31,East,100,1.0,2.0,83,0.00,,---,0.00,VWS V14.01,2013-01-25 15:09:00,
2013-01-25 10:10:00,63.5,58.2,30.31,East,85,1.0,2.0,83,0.00,,---,0.00,VWS V14.01,2013-01-25 15:10:00,
2013-01-25 10:14:00,64.3,58.3,30.31,ENE,71,0.0,2.0,81,0.00,,---,0.00,VWS V14.01,2013-01-25 15:14:00,
2013-01-25 10:19:00,64.7,58.4,30.31,ENE,65,0.0,0.0,80,0.00,,---,0.00,VWS V14.01,2013-01-25 15:19:00,
2013-01-25 10:20:00,64.6,58.0,30.31,ENE,65,0.0,2.0,79,0.00,,---,0.00,VWS V14.01,2013-01-25 15:20:00,
2013-01-25 10:25:00,65.4,58.4,30.31,East,98,0.0,2.0,78,0.00,,---,0.00,VWS V14.01,2013-01-25 15:25:00,
2013-01-25 10:30:00,66.0,58.6,30.32,East,79,1.0,2.0,77,0.00,,---,0.00,VWS V14.01,2013-01-25 15:30:00,
2013-01-25 10:35:00,66.3,58.2,30.31,ENE,77,0.0,3.0,75,0.00,,---,0.00,VWS V14.01,2013-01-25 15:35:00,
2013-01-25 10:40:00,66.7,58.9,30.32,ENE,71,0.0,0.0,76,0.00,,---,0.00,VWS V14.01,2013-01-25 15:40:00,
2013-01-25 10:45:00,67.8,58.1,30.31,East,98,0.0,1.0,71,0.00,,---,0.00,VWS V14.01,2013-01-25 15:45:00,
2013-01-25 10:50:00,69.0,59.2,30.31,ESE,105,0.0,0.0,71,0.00,,---,0.00,VWS V14.01,2013-01-25 15:50:00,
2013-01-25 10:55:00,69.4,57.1,30.31,ESE,107,1.0,3.0,65,0.00,,---,0.00,VWS V14.01,2013-01-25 15:55:00,
2013-01-25 11:00:00,69.5,57.7,30.31,East,79,2.0,2.0,66,0.00,,---,0.00,VWS V14.01,2013-01-25 16:00:00,
2013-01-25 11:05:00,70.0,56.8,30.31,WSW,245,0.0,3.0,63,0.00,,---,0.00,VWS V14.01,2013-01-25 16:05:00,
2013-01-25 11:10:00,70.7,57.1,30.30,ENE,68,1.0,2.0,62,0.00,,---,0.00,VWS V14.01,2013-01-25 16:10:00,
2013-01-25 11:15:00,70.5,56.0,30.30,ENE,77,0.0,2.0,60,0.00,,---,0.00,VWS V14.01,2013-01-25 16:15:00,
2013-01-25 11:20:00,70.7,56.2,30.30,ESE,111,0.0,1.0,60,0.00,,---,0.00,VWS V14.01,2013-01-25 16:20:00,
2013-01-25 11:25:00,71.2,56.2,30.30,ENE,67,0.0,3.0,59,0.00,,---,0.00,VWS V14.01,2013-01-25 16:25:00,
2013-01-25 11:30:00,71.3,55.8,30.30,East,94,1.0,3.0,58,0.00,,---,0.00,VWS V14.01,2013-01-25 16:30:00,
2013-01-25 11:35:00,71.4,56.3,30.30,West,278,0.0,3.0,59,0.00,,---,0.00,VWS V14.01,2013-01-25 16:35:00,
2013-01-25 11:40:00,72.2,56.1,30.30,West,278,0.0,1.0,57,0.00,,---,0.00,VWS V14.01,2013-01-25 16:40:00,
2013-01-25 11:45:00,73.1,54.5,30.29,SSE,165,0.0,1.0,52,0.00,,---,0.00,VWS V14.01,2013-01-25 16:45:00,
2013-01-25 11:50:00,73.6,54.9,30.29,ESE,111,0.0,1.0,52,0.00,,---,0.00,VWS V14.01,2013-01-25 16:50:00,
2013-01-25 11:55:00,74.1,54.8,30.28,WNW,288,1.0,1.0,51,0.00,,---,0.00,VWS V14.01,2013-01-25 16:55:00,
2013-01-25 12:00:00,74.0,54.2,30.28,East,98,0.0,1.0,50,0.00,,---,0.00,VWS V14.01,2013-01-25 17:00:00,
2013-01-25 12:05:00,74.2,51.5,30.28,ESE,102,0.0,1.0,45,0.00,,---,0.00,VWS V14.01,2013-01-25 17:05:00,
2013-01-25 12:10:00,73.7,52.8,30.27,ENE,63,0.0,0.0,48,0.00,,---,0.00,VWS V14.01,2013-01-25 17:10:00,
2013-01-25 12:15:00,74.2,54.4,30.27,West,272,1.0,2.0,50,0.00,,---,0.00,VWS V14.01,2013-01-25 17:15:00,
2013-01-25 12:20:00,74.1,52.0,30.27,SW,226,0.0,2.0,46,0.00,,---,0.00,VWS V14.01,2013-01-25 17:20:00,
2013-01-25 12:25:00,74.2,52.7,30.27,WSW,257,0.0,2.0,47,0.00,,---,0.00,VWS V14.01,2013-01-25 17:25:00,
2013-01-25 12:30:00,74.0,51.9,30.26,WSW,246,0.0,1.0,46,0.00,,---,0.00,VWS V14.01,2013-01-25 17:30:00,
2013-01-25 12:35:00,74.1,52.6,30.26,SW,229,0.0,3.0,47,0.00,,---,0.00,VWS V14.01,2013-01-25 17:35:00,
2013-01-25 12:40:00,74.0,52.5,30.25,WSW,248,1.0,3.0,47,0.00,,---,0.00,VWS V14.01,2013-01-25 17:40:00,
2013-01-25 12:45:00,74.0,52.5,30.25,West,263,2.0,3.0,47,0.00,,---,0.00,VWS V14.01,2013-01-25 17:45:00,
2013-01-25 12:50:00,74.3,52.2,30.25,ENE,78,0.0,1.0,46,0.00,,---,0.00,VWS V14.01,2013-01-25 17:50:00,
2013-01-25 12:55:00,75.0,52.8,30.24,WNW,288,0.0,2.0,46,0.00,,---,0.00,VWS V14.01,2013-01-25 17:55:00,
2013-01-25 13:00:00,75.3,52.5,30.24,West,259,1.0,3.0,45,0.00,,---,0.00,VWS V14.01,2013-01-25 18:00:00,
2013-01-25 13:05:00,75.2,52.4,30.24,WSW,240,4.0,4.0,45,0.00,,---,0.00,VWS V14.01,2013-01-25 18:05:00,
2013-01-25 13:10:00,75.3,53.1,30.24,ENE,74,1.0,2.0,46,0.00,,---,0.00,VWS V14.01,2013-01-25 18:10:00,
2013-01-25 13:15:00,75.4,52.0,30.24,West,271,1.0,3.0,44,0.00,,---,0.00,VWS V14.01,2013-01-25 18:15:00,
2013-01-25 13:20:00,75.1,51.1,30.23,WNW,301,1.0,4.0,43,0.00,,---,0.00,VWS V14.01,2013-01-25 18:20:00,
2013-01-25 13:25:00,75.0,51.6,30.23,WSW,252,1.0,4.0,44,0.00,,---,0.00,VWS V14.01,2013-01-25 18:25:00,
2013-01-25 13:30:00,74.8,51.5,30.22,WSW,246,0.0,1.0,44,0.00,,---,0.00,VWS V14.01,2013-01-25 18:30:00,
2013-01-25 13:35:00,74.6,51.9,30.22,West,259,0.0,2.0,45,0.00,,---,0.00,VWS V14.01,2013-01-25 18:35:00,
2013-01-25 13:40:00,74.8,52.1,30.22,WNW,288,1.0,4.0,45,0.00,,---,0.00,VWS V14.01,2013-01-25 18:40:00,
2013-01-25 13:45:00,75.0,52.2,30.22,NW,326,0.0,4.0,45,0.00,,---,0.00,VWS V14.01,2013-01-25 18:45:00,
2013-01-25 13:50:00,75.7,51.6,30.21,ESE,121,2.0,2.0,43,0.00,,---,0.00,VWS V14.01,2013-01-25 18:50:00,
2013-01-25 13:55:00,76.0,51.9,30.21,WSW,255,1.0,3.0,43,0.00,,---,0.00,VWS V14.01,2013-01-25 18:55:00,
2013-01-25 14:00:00,76.1,54.4,30.21,West,260,0.0,3.0,47,0.00,,---,0.00,VWS V14.01,2013-01-25 19:00:00,
2013-01-25 14:01:00,76.2,52.1,30.21,WSW,253,2.0,2.0,43,0.00,,---,0.00,VWS V14.01,2013-01-25 19:01:00,
2013-01-25 14:06:00,76.5,51.7,30.21,WSW,250,2.0,2.0,42,0.00,,---,0.00,VWS V14.01,2013-01-25 19:06:00,
2013-01-25 14:10:00,76.5,52.4,30.21,West,269,1.0,2.0,43,0.00,,---,0.00,VWS V14.01,2013-01-25 19:10:00,
2013-01-25 14:11:00,76.5,52.4,30.21,West,273,0.0,2.0,43,0.00,,---,0.00,VWS V14.01,2013-01-25 19:11:00,
2013-01-25 14:16:00,76.2,52.1,30.20,West,281,4.0,6.0,43,0.00,,---,0.00,VWS V14.01,2013-01-25 19:16:00,
2013-01-25 14:20:00,75.7,51.0,30.20,SW,229,0.0,6.0,42,0.00,,---,0.00,VWS V14.01,2013-01-25 19:20:00,
2013-01-25 14:21:00,75.5,50.8,30.20,SE,131,0.0,1.0,42,0.00,,---,0.00,VWS V14.01,2013-01-25 19:21:00,
2013-01-25 14:26:00,75.5,52.7,30.20,WSW,256,0.0,2.0,45,0.00,,---,0.00,VWS V14.01,2013-01-25 19:26:00,
2013-01-25 14:30:00,76.0,53.8,30.20,WNW,295,1.0,2.0,46,0.00,,---,0.00,VWS V14.01,2013-01-25 19:30:00,
2013-01-25 14:31:00,76.2,51.5,30.20,WNW,291,0.0,3.0,42,0.00,,---,0.00,VWS V14.01,2013-01-25 19:31:00,
2013-01-25 14:36:00,76.5,51.7,30.19,West,263,1.0,3.0,42,0.00,,---,0.00,VWS V14.01,2013-01-25 19:36:00,
2013-01-25 14:40:00,76.5,51.7,30.19,WNW,283,0.0,3.0,42,0.00,,---,0.00,VWS V14.01,2013-01-25 19:40:00,
2013-01-25 14:41:00,76.4,52.9,30.19,West,270,1.0,2.0,44,0.00,,---,0.00,VWS V14.01,2013-01-25 19:41:00,
2013-01-25 14:46:00,76.2,52.7,30.19,West,259,1.0,4.0,44,0.00,,---,0.00,VWS V14.01,2013-01-25 19:46:00,
2013-01-25 14:50:00,76.1,52.0,30.18,West,267,0.0,4.0,43,0.00,,---,0.00,VWS V14.01,2013-01-25 19:50:00,
2013-01-25 14:51:00,76.2,52.1,30.18,NW,323,0.0,2.0,43,0.00,,---,0.00,VWS V14.01,2013-01-25 19:51:00,
2013-01-25 14:56:00,76.5,52.4,30.18,WSW,246,0.0,3.0,43,0.00,,---,0.00,VWS V14.01,2013-01-25 19:56:00,
2013-01-25 15:00:00,76.7,52.5,30.18,ESE,113,1.0,3.0,43,0.00,,---,0.00,VWS V14.01,2013-01-25 20:00:00,
2013-01-25 15:01:00,76.8,51.3,30.18,East,94,1.0,2.0,41,0.00,,---,0.00,VWS V14.01,2013-01-25 20:01:00,
2013-01-25 15:06:00,76.3,51.5,30.18,East,85,0.0,2.0,42,0.00,,---,0.00,VWS V14.01,2013-01-25 20:06:00,
2013-01-25 15:10:00,75.9,51.8,30.18,East,84,0.0,2.0,43,0.00,,---,0.00,VWS V14.01,2013-01-25 20:10:00,
2013-01-25 15:11:00,75.8,51.1,30.17,SE,134,0.0,1.0,42,0.00,,---,0.00,VWS V14.01,2013-01-25 20:11:00,
2013-01-25 15:16:00,76.4,52.9,30.17,West,266,0.0,1.0,44,0.00,,---,0.00,VWS V14.01,2013-01-25 20:16:00,
2013-01-25 15:20:00,76.6,52.5,30.17,North,9,0.0,2.0,43,0.00,,---,0.00,VWS V14.01,2013-01-25 20:20:00,
2013-01-25 15:21:00,76.8,51.3,30.17,SW,226,0.0,0.0,41,0.00,,---,0.00,VWS V14.01,2013-01-25 20:21:00,
2013-01-25 15:26:00,76.9,51.4,30.17,West,278,0.0,3.0,41,0.00,,---,0.00,VWS V14.01,2013-01-25 20:26:00,
2013-01-25 15:30:00,76.8,52.6,30.17,WNW,300,0.0,3.0,43,0.00,,---,0.00,VWS V14.01,2013-01-25 20:30:00,
2013-01-25 15:31:00,76.9,50.8,30.17,ENE,70,2.0,3.0,40,0.00,,---,0.00,VWS V14.01,2013-01-25 20:31:00,
2013-01-25 15:36:00,76.8,50.0,30.17,WSW,238,1.0,3.0,39,0.00,,---,0.00,VWS V14.01,2013-01-25 20:36:00,
2013-01-25 15:40:00,76.8,50.0,30.17,West,270,0.0,4.0,39,0.00,,---,0.00,VWS V14.01,2013-01-25 20:40:00,
2013-01-25 15:41:00,76.9,50.1,30.17,West,262,3.0,4.0,39,0.00,,---,0.00,VWS V14.01,2013-01-25 20:41:00,
2013-01-25 15:46:00,76.6,50.5,30.17,West,264,1.0,4.0,40,0.00,,---,0.00,VWS V14.01,2013-01-25 20:46:00,
2013-01-25 15:50:00,76.7,49.9,30.17,WNW,302,1.0,4.0,39,0.00,,---,0.00,VWS V14.01,2013-01-25 20:50:00,
2013-01-25 15:51:00,76.6,49.8,30.17,West,273,1.0,4.0,39,0.00,,---,0.00,VWS V14.01,2013-01-25 20:51:00,
2013-01-25 15:56:00,76.6,50.5,30.18,WNW,292,1.0,4.0,40,0.00,,---,0.00,VWS V14.01,2013-01-25 20:56:00,
2013-01-25 16:00:00,76.6,51.2,30.18,SSW,210,0.0,4.0,41,0.00,,---,0.00,VWS V14.01,2013-01-25 21:00:00,
2013-01-25 16:01:00,76.7,50.6,30.18,NW,322,0.0,3.0,40,0.00,,---,0.00,VWS V14.01,2013-01-25 21:01:00,
2013-01-25 16:06:00,76.8,50.7,30.18,ENE,65,0.0,3.0,40,0.00,,---,0.00,VWS V14.01,2013-01-25 21:06:00,
2013-01-25 16:10:00,76.8,51.3,30.17,ENE,72,0.0,3.0,41,0.00,,---,0.00,VWS V14.01,2013-01-25 21:10:00,
2013-01-25 16:11:00,76.8,50.7,30.17,West,277,2.0,4.0,40,0.00,,---,0.00,VWS V14.01,2013-01-25 21:11:00,
2013-01-25 16:16:00,76.4,51.0,30.17,WNW,287,0.0,4.0,41,0.00,,---,0.00,VWS V14.01,2013-01-25 21:16:00,
2013-01-25 16:20:00,76.3,50.9,30.17,WSW,253,0.0,4.0,41,0.00,,---,0.00,VWS V14.01,2013-01-25 21:20:00,
2013-01-25 16:21:00,76.2,50.8,30.17,WNW,293,0.0,2.0,41,0.00,,---,0.00,VWS V14.01,2013-01-25 21:21:00,
2013-01-25 16:26:00,76.6,51.2,30.17,West,280,1.0,2.0,41,0.00,,---,0.00,VWS V14.01,2013-01-25 21:26:00,
2013-01-25 16:30:00,76.4,50.3,30.17,WSW,248,0.0,3.0,40,0.00,,---,0.00,VWS V14.01,2013-01-25 21:30:00,
2013-01-25 16:31:00,76.2,50.8,30.17,WNW,291,0.0,4.0,41,0.00,,---,0.00,VWS V14.01,2013-01-25 21:31:00,
2013-01-25 16:36:00,75.8,51.1,30.17,East,82,1.0,4.0,42,0.00,,---,0.00,VWS V14.01,2013-01-25 21:36:00,
2013-01-25 16:40:00,75.6,50.9,30.17,East,96,1.0,4.0,42,0.00,,---,0.00,VWS V14.01,2013-01-25 21:40:00,
2013-01-25 16:41:00,75.6,50.9,30.17,SW,229,0.0,2.0,42,0.00,,---,0.00,VWS V14.01,2013-01-25 21:41:00,
2013-01-25 16:46:00,75.8,51.1,30.17,West,280,1.0,2.0,42,0.00,,---,0.00,VWS V14.01,2013-01-25 21:46:00,
2013-01-25 16:50:00,75.7,50.4,30.17,West,274,2.0,2.0,41,0.00,,---,0.00,VWS V14.01,2013-01-25 21:50:00,
2013-01-25 16:51:00,75.4,50.1,30.17,WSW,257,0.0,3.0,41,0.00,,---,0.00,VWS V14.01,2013-01-25 21:51:00,
2013-01-25 16:56:00,74.9,50.3,30.17,West,263,0.0,3.0,42,0.00,,---,0.00,VWS V14.01,2013-01-25 21:56:00,
2013-01-25 17:00:00,74.7,50.7,30.17,West,259,0.0,3.0,43,0.00,,---,0.00,VWS V14.01,2013-01-25 22:00:00,
2013-01-25 17:01:00,74.6,50.7,30.17,WSW,237,0.0,1.0,43,0.00,,---,0.00,VWS V14.01,2013-01-25 22:01:00,
2013-01-25 17:06:00,74.6,50.7,30.17,WNW,297,0.0,2.0,43,0.00,,---,0.00,VWS V14.01,2013-01-25 22:06:00,
2013-01-25 17:10:00,74.6,50.7,30.17,SSW,195,0.0,3.0,43,0.00,,---,0.00,VWS V14.01,2013-01-25 22:10:00,
2013-01-25 17:11:00,74.5,50.6,30.17,WSW,256,0.0,1.0,43,0.00,,---,0.00,VWS V14.01,2013-01-25 22:11:00,
2013-01-25 17:16:00,74.1,50.8,30.18,West,280,0.0,2.0,44,0.00,,---,0.00,VWS V14.01,2013-01-25 22:16:00,
2013-01-25 17:20:00,74.0,50.7,30.18,West,266,0.0,2.0,44,0.00,,---,0.00,VWS V14.01,2013-01-25 22:20:00,
2013-01-25 17:21:00,73.7,50.5,30.18,WSW,249,0.0,1.0,44,0.00,,---,0.00,VWS V14.01,2013-01-25 22:21:00,
2013-01-25 17:26:00,73.4,50.8,30.17,WNW,287,0.0,1.0,45,0.00,,---,0.00,VWS V14.01,2013-01-25 22:26:00,
2013-01-25 17:30:00,73.1,49.9,30.17,West,278,1.0,1.0,44,0.00,,---,0.00,VWS V14.01,2013-01-25 22:30:00,
2013-01-25 17:31:00,72.6,50.1,30.17,West,276,0.0,2.0,45,0.00,,---,0.00,VWS V14.01,2013-01-25 22:31:00,
2013-01-25 17:36:00,71.8,50.5,30.18,WSW,249,0.0,2.0,47,0.00,,---,0.00,VWS V14.01,2013-01-25 22:36:00,
2013-01-25 17:40:00,71.5,50.2,30.18,West,259,0.0,2.0,47,0.00,,---,0.00,VWS V14.01,2013-01-25 22:40:00,
2013-01-25 17:41:00,71.2,50.0,30.17,West,276,0.0,1.0,47,0.00,,---,0.00,VWS V14.01,2013-01-25 22:41:00,
2013-01-25 17:46:00,70.6,50.0,30.18,West,263,0.0,1.0,48,0.00,,---,0.00,VWS V14.01,2013-01-25 22:46:00,
2013-01-25 17:50:00,70.3,50.3,30.18,WNW,283,0.0,1.0,49,0.00,,---,0.00,VWS V14.01,2013-01-25 22:50:00,
2013-01-25 17:52:00,70.1,50.1,30.18,WNW,283,0.0,0.0,49,0.00,,---,0.00,VWS V14.01,2013-01-25 22:52:00,
2013-01-25 17:57:00,69.4,50.0,30.18,West,274,5.0,6.0,50,0.00,,---,0.00,VWS V14.01,2013-01-25 22:57:00,
2013-01-25 18:00:00,69.2,49.8,30.18,West,274,1.0,6.0,50,0.00,,---,0.00,VWS V14.01,2013-01-25 23:00:00,
2013-01-25 18:02:00,68.8,50.0,30.18,WSW,252,1.0,5.0,51,0.00,,---,0.00,VWS V14.01,2013-01-25 23:02:00,
2013-01-25 18:07:00,68.2,49.9,30.18,West,274,1.0,5.0,52,0.00,,---,0.00,VWS V14.01,2013-01-25 23:07:00,
2013-01-25 18:10:00,67.9,50.2,30.18,WSW,243,2.0,5.0,53,0.00,,---,0.00,VWS V14.01,2013-01-25 23:10:00,
2013-01-25 18:11:00,67.6,49.9,30.18,WNW,296,0.0,3.0,53,0.00,,---,0.00,VWS V14.01,2013-01-25 23:11:00,
2013-01-25 18:17:00,67.0,49.3,30.18,WSW,249,2.0,4.0,53,0.00,,---,0.00,VWS V14.01,2013-01-25 23:17:00,
2013-01-25 18:20:00,66.8,49.1,30.18,WSW,239,4.0,5.0,53,0.00,,---,0.00,VWS V14.01,2013-01-25 23:20:00,
2013-01-25 18:22:00,66.6,49.0,30.18,West,260,6.0,7.0,53,0.00,,---,0.00,VWS V14.01,2013-01-25 23:22:00,
2013-01-25 18:27:00,66.3,48.7,30.19,WSW,252,3.0,7.0,53,0.00,,---,0.00,VWS V14.01,2013-01-25 23:27:00,
2013-01-25 18:30:00,66.2,48.6,30.19,West,260,1.0,7.0,53,0.00,,---,0.00,VWS V14.01,2013-01-25 23:30:00,
2013-01-25 18:32:00,66.0,48.9,30.19,West,263,1.0,3.0,54,0.00,,---,0.00,VWS V14.01,2013-01-25 23:32:00,
2013-01-25 18:37:00,65.6,48.5,30.19,WSW,257,4.0,5.0,54,0.00,,---,0.00,VWS V14.01,2013-01-25 23:37:00,
2013-01-25 18:40:00,65.5,48.4,30.19,NW,309,3.0,5.0,54,0.00,,---,0.00,VWS V14.01,2013-01-25 23:40:00,
2013-01-25 18:42:00,65.3,48.2,30.19,WSW,239,4.0,6.0,54,0.00,,---,0.00,VWS V14.01,2013-01-25 23:42:00,
2013-01-25 18:47:00,64.9,47.9,30.20,WSW,252,1.0,6.0,54,0.00,,---,0.00,VWS V14.01,2013-01-25 23:47:00,
2013-01-25 18:50:00,64.8,47.8,30.20,WSW,242,3.0,6.0,54,0.00,,---,0.00,VWS V14.01,2013-01-25 23:50:00,
2013-01-25 18:52:00,64.7,48.2,30.20,WSW,257,1.0,5.0,55,0.00,,---,0.00,VWS V14.01,2013-01-25 23:52:00,
2013-01-25 18:57:00,64.4,48.4,30.20,West,259,1.0,5.0,56,0.00,,---,0.00,VWS V14.01,2013-01-25 23:57:00,
2013-01-25 19:00:00,64.2,48.2,30.20,WNW,290,2.0,5.0,56,0.00,,---,0.00,VWS V14.01,2013-01-26 00:00:00,
2013-01-25 19:02:00,64.0,48.0,30.20,WSW,244,1.0,3.0,56,0.00,,---,0.00,VWS V14.01,2013-01-26 00:02:00,
2013-01-25 19:07:00,63.8,47.8,30.21,West,280,1.0,4.0,56,0.00,,---,0.00,VWS V14.01,2013-01-26 00:07:00,
2013-01-25 19:10:00,63.7,47.7,30.21,WSW,240,1.0,4.0,56,0.00,,---,0.00,VWS V14.01,2013-01-26 00:10:00,
2013-01-25 19:12:00,63.5,47.5,30.21,West,274,1.0,3.0,56,0.00,,---,0.00,VWS V14.01,2013-01-26 00:12:00,
2013-01-25 19:17:00,63.1,47.2,30.21,WSW,243,0.0,3.0,56,0.00,,---,0.00,VWS V14.01,2013-01-26 00:17:00,
2013-01-25 19:20:00,63.0,47.1,30.21,WSW,245,0.0,3.0,56,0.00,,---,0.00,VWS V14.01,2013-01-26 00:20:00,
2013-01-25 19:22:00,62.7,46.8,30.21,WSW,248,0.0,2.0,56,0.00,,---,0.00,VWS V14.01,2013-01-26 00:22:00,
2013-01-25 19:27:00,62.3,46.9,30.21,West,281,0.0,2.0,57,0.00,,---,0.00,VWS V14.01,2013-01-26 00:27:00,
2013-01-25 19:30:00,62.1,47.2,30.21,West,281,0.0,2.0,58,0.00,,---,0.00,VWS V14.01,2013-01-26 00:30:00,
2013-01-25 19:32:00,61.8,46.9,30.21,West,264,0.0,1.0,58,0.00,,---,0.00,VWS V14.01,2013-01-26 00:32:00,
2013-01-25 19:37:00,61.7,46.8,30.21,West,271,0.0,3.0,58,0.00,,---,0.00,VWS V14.01,2013-01-26 00:37:00,
2013-01-25 19:40:00,61.5,46.6,30.21,West,273,0.0,3.0,58,0.00,,---,0.00,VWS V14.01,2013-01-26 00:40:00,
2013-01-25 19:42:00,61.3,46.4,30.21,West,272,1.0,1.0,58,0.00,,---,0.00,VWS V14.01,2013-01-26 00:42:00,
2013-01-25 19:47:00,60.9,45.6,30.21,WSW,257,1.0,1.0,57,0.00,,---,0.00,VWS V14.01,2013-01-26 00:47:00,
2013-01-25 19:50:00,60.8,46.0,30.20,WSW,253,0.0,1.0,58,0.00,,---,0.00,VWS V14.01,2013-01-26 00:50:00,
2013-01-25 19:52:00,60.6,45.8,30.20,West,276,0.0,1.0,58,0.00,,---,0.00,VWS V14.01,2013-01-26 00:52:00,
2013-01-25 19:57:00,60.4,45.6,30.20,WSW,250,0.0,1.0,58,0.00,,---,0.00,VWS V14.01,2013-01-26 00:57:00,
2013-01-25 20:00:00,60.3,45.5,30.20,WSW,253,0.0,1.0,58,0.00,,---,0.00,VWS V14.01,2013-01-26 01:00:00,
2013-01-25 20:02:00,60.1,45.7,30.20,WSW,252,0.0,0.0,59,0.00,,---,0.00,VWS V14.01,2013-01-26 01:02:00,
2013-01-25 20:07:00,59.9,45.5,30.20,WNW,293,0.0,1.0,59,0.00,,---,0.00,VWS V14.01,2013-01-26 01:07:00,
2013-01-25 20:10:00,59.7,45.4,30.20,WNW,293,0.0,1.0,59,0.00,,---,0.00,VWS V14.01,2013-01-26 01:10:00,
2013-01-25 20:12:00,59.5,45.6,30.20,WNW,293,0.0,0.0,60,0.00,,---,0.00,VWS V14.01,2013-01-26 01:12:00,
2013-01-25 20:17:00,59.1,45.2,30.20,WNW,293,0.0,0.0,60,0.00,,---,0.00,VWS V14.01,2013-01-26 01:17:00,
2013-01-25 20:20:00,58.8,45.4,30.20,WNW,292,0.0,0.0,61,0.00,,---,0.00,VWS V14.01,2013-01-26 01:20:00,
2013-01-25 20:22:00,58.5,45.5,30.20,WNW,292,0.0,0.0,62,0.00,,---,0.00,VWS V14.01,2013-01-26 01:22:00,
2013-01-25 20:27:00,58.1,45.6,30.20,WNW,293,0.0,0.0,63,0.00,,---,0.00,VWS V14.01,2013-01-26 01:27:00,
2013-01-25 20:30:00,58.0,45.5,30.20,WNW,292,0.0,0.0,63,0.00,,---,0.00,VWS V14.01,2013-01-26 01:30:00,
2013-01-25 20:32:00,57.7,45.2,30.20,WNW,293,0.0,0.0,63,0.00,,---,0.00,VWS V14.01,2013-01-26 01:32:00,
2013-01-25 20:37:00,57.1,45.0,30.20,WNW,293,0.0,0.0,64,0.00,,---,0.00,VWS V14.01,2013-01-26 01:37:00,
2013-01-25 20:40:00,56.9,45.3,30.20,WNW,292,0.0,0.0,65,0.00,,---,0.00,VWS V14.01,2013-01-26 01:40:00,
2013-01-25 20:42:00,56.7,45.5,30.20,WNW,293,0.0,0.0,66,0.00,,---,0.00,VWS V14.01,2013-01-26 01:42:00,
2013-01-25 20:47:00,56.2,45.0,30.20,WNW,293,0.0,0.0,66,0.00,,---,0.00,VWS V14.01,2013-01-26 01:47:00,
2013-01-25 20:50:00,56.0,44.8,30.20,WNW,293,0.0,0.0,66,0.00,,---,0.00,VWS V14.01,2013-01-26 01:50:00,
2013-01-25 20:52:00,55.6,44.8,30.20,WNW,292,0.0,0.0,67,0.00,,---,0.00,VWS V14.01,2013-01-26 01:52:00,
2013-01-25 20:57:00,55.2,45.2,30.20,WNW,292,0.0,0.0,69,0.00,,---,0.00,VWS V14.01,2013-01-26 01:57:00,
2013-01-25 21:00:00,55.1,45.1,30.20,WNW,293,0.0,0.0,69,0.00,,---,0.00,VWS V14.01,2013-01-26 02:00:00,
2013-01-25 21:02:00,54.9,45.3,30.20,WNW,293,0.0,0.0,70,0.00,,---,0.00,VWS V14.01,2013-01-26 02:02:00,
2013-01-25 21:07:00,54.6,45.4,30.20,WNW,292,0.0,0.0,71,0.00,,---,0.00,VWS V14.01,2013-01-26 02:07:00,
2013-01-25 21:10:00,54.4,45.2,30.20,WNW,292,0.0,0.0,71,0.00,,---,0.00,VWS V14.01,2013-01-26 02:10:00,
2013-01-25 21:12:00,54.3,45.5,30.20,WNW,293,0.0,0.0,72,0.00,,---,0.00,VWS V14.01,2013-01-26 02:12:00,
2013-01-25 21:17:00,54.0,45.2,30.20,WNW,292,0.0,0.0,72,0.00,,---,0.00,VWS V14.01,2013-01-26 02:17:00,
2013-01-25 21:20:00,53.9,45.5,30.20,WNW,292,0.0,0.0,73,0.00,,---,0.00,VWS V14.01,2013-01-26 02:20:00,
2013-01-25 21:22:00,53.8,45.4,30.20,WNW,293,0.0,0.0,73,0.00,,---,0.00,VWS V14.01,2013-01-26 02:22:00,
2013-01-25 21:27:00,53.4,45.0,30.20,WNW,292,0.0,0.0,73,0.00,,---,0.00,VWS V14.01,2013-01-26 02:27:00,
2013-01-25 21:30:00,53.3,45.2,30.20,WNW,293,0.0,0.0,74,0.00,,---,0.00,VWS V14.01,2013-01-26 02:30:00,
2013-01-25 21:32:00,53.1,45.4,30.20,WNW,293,0.0,0.0,75,0.00,,---,0.00,VWS V14.01,2013-01-26 02:32:00,
2013-01-25 21:37:00,52.8,45.5,30.20,WNW,293,0.0,0.0,76,0.00,,---,0.00,VWS V14.01,2013-01-26 02:37:00,
2013-01-25 21:40:00,52.7,45.4,30.20,WNW,293,0.0,0.0,76,0.00,,---,0.00,VWS V14.01,2013-01-26 02:40:00,
2013-01-25 21:42:00,52.5,45.2,30.20,WNW,293,0.0,0.0,76,0.00,,---,0.00,VWS V14.01,2013-01-26 02:42:00,
2013-01-25 21:47:00,52.1,45.5,30.20,WNW,292,0.0,0.0,78,0.00,,---,0.00,VWS V14.01,2013-01-26 02:47:00,
2013-01-25 21:50:00,52.0,45.4,30.20,WNW,293,0.0,0.0,78,0.00,,---,0.00,VWS V14.01,2013-01-26 02:50:00,
2013-01-25 21:52:00,51.8,45.5,30.20,WNW,292,0.0,0.0,79,0.00,,---,0.00,VWS V14.01,2013-01-26 02:52:00,
2013-01-25 21:57:00,51.5,45.2,30.21,WNW,292,0.0,0.0,79,0.00,,---,0.00,VWS V14.01,2013-01-26 02:57:00,
2013-01-25 22:00:00,51.4,45.5,30.20,WNW,293,0.0,0.0,80,0.00,,---,0.00,VWS V14.01,2013-01-26 03:00:00,
2013-01-25 22:02:00,51.4,45.8,30.20,WNW,293,0.0,0.0,81,0.00,,---,0.00,VWS V14.01,2013-01-26 03:02:00,
2013-01-25 22:07:00,51.2,45.2,30.21,WNW,292,0.0,0.0,80,0.00,,---,0.00,VWS V14.01,2013-01-26 03:07:00,
2013-01-25 22:10:00,51.1,45.5,30.21,WNW,293,0.0,0.0,81,0.00,,---,0.00,VWS V14.01,2013-01-26 03:10:00,
2013-01-25 22:12:00,50.9,45.3,30.21,WNW,293,0.0,0.0,81,0.00,,---,0.00,VWS V14.01,2013-01-26 03:12:00,
2013-01-25 22:17:00,50.7,45.4,30.21,WNW,292,0.0,0.0,82,0.00,,---,0.00,VWS V14.01,2013-01-26 03:17:00,
2013-01-25 22:20:00,50.6,45.3,30.21,WNW,293,0.0,0.0,82,0.00,,---,0.00,VWS V14.01,2013-01-26 03:20:00,
2013-01-25 22:22:00,50.4,45.1,30.22,WNW,292,0.0,0.0,82,0.00,,---,0.00,VWS V14.01,2013-01-26 03:22:00,
2013-01-25 22:27:00,50.1,45.2,30.21,WNW,292,0.0,0.0,83,0.00,,---,0.00,VWS V14.01,2013-01-26 03:27:00,
2013-01-25 22:30:00,50.1,45.5,30.21,WNW,293,0.0,0.0,84,0.00,,---,0.00,VWS V14.01,2013-01-26 03:30:00,
2013-01-25 22:32:00,50.2,45.9,30.21,WNW,293,0.0,0.0,85,0.00,,---,0.00,VWS V14.01,2013-01-26 03:32:00,
2013-01-25 22:37:00,50.3,46.0,30.22,WNW,292,0.0,0.0,85,0.00,,---,0.00,VWS V14.01,2013-01-26 03:37:00,
2013-01-25 22:40:00,50.3,46.3,30.22,WNW,293,0.0,0.0,86,0.00,,---,0.00,VWS V14.01,2013-01-26 03:40:00,
2013-01-25 22:42:00,50.2,46.2,30.22,WNW,293,0.0,0.0,86,0.00,,---,0.00,VWS V14.01,2013-01-26 03:42:00,
2013-01-25 22:47:00,50.0,46.0,30.22,WNW,293,0.0,0.0,86,0.00,,---,0.00,VWS V14.01,2013-01-26 03:47:00,
2013-01-25 22:50:00,49.9,45.9,30.22,WNW,292,0.0,0.0,86,0.00,,---,0.00,VWS V14.01,2013-01-26 03:50:00,
2013-01-25 22:52:00,49.8,46.1,30.22,WNW,293,0.0,0.0,87,0.00,,---,0.00,VWS V14.01,2013-01-26 03:52:00,
2013-01-25 22:57:00,49.6,45.9,30.22,WNW,293,0.0,0.0,87,0.00,,---,0.00,VWS V14.01,2013-01-26 03:57:00,
2013-01-25 23:00:00,49.5,45.8,30.22,WNW,292,0.0,0.0,87,0.00,,---,0.00,VWS V14.01,2013-01-26 04:00:00,
2013-01-25 23:02:00,49.3,45.6,30.22,WNW,293,0.0,0.0,87,0.00,,---,0.00,VWS V14.01,2013-01-26 04:02:00,
2013-01-25 23:07:00,49.1,45.4,30.23,WNW,293,0.0,0.0,87,0.00,,---,0.00,VWS V14.01,2013-01-26 04:07:00,
2013-01-25 23:10:00,49.0,45.6,30.23,WNW,292,0.0,0.0,88,0.00,,---,0.00,VWS V14.01,2013-01-26 04:10:00,
2013-01-25 23:12:00,49.0,45.9,30.23,WNW,293,0.0,0.0,89,0.00,,---,0.00,VWS V14.01,2013-01-26 04:12:00,
2013-01-25 23:17:00,49.1,46.0,30.23,WNW,293,0.0,0.0,89,0.00,,---,0.00,VWS V14.01,2013-01-26 04:17:00,
2013-01-25 23:20:00,49.1,46.0,30.23,WNW,293,0.0,0.0,89,0.00,,---,0.00,VWS V14.01,2013-01-26 04:20:00,
2013-01-25 23:22:00,48.9,45.8,30.23,WNW,293,0.0,0.0,89,0.00,,---,0.00,VWS V14.01,2013-01-26 04:22:00,
2013-01-25 23:27:00,48.7,45.6,30.23,WNW,293,0.0,0.0,89,0.00,,---,0.00,VWS V14.01,2013-01-26 04:27:00,
2013-01-25 23:30:00,48.6,45.5,30.23,WNW,293,0.0,0.0,89,0.00,,---,0.00,VWS V14.01,2013-01-26 04:30:00,
2013-01-25 23:32:00,48.3,45.2,30.23,WNW,292,0.0,0.0,89,0.00,,---,0.00,VWS V14.01,2013-01-26 04:32:00,
2013-01-25 23:37:00,48.2,45.4,30.23,WNW,292,0.0,0.0,90,0.00,,---,0.00,VWS V14.01,2013-01-26 04:37:00,
2013-01-25 23:40:00,48.1,45.3,30.23,WNW,292,0.0,0.0,90,0.00,,---,0.00,VWS V14.01,2013-01-26 04:40:00,
2013-01-25 23:42:00,48.2,45.4,30.23,WNW,293,0.0,0.0,90,0.00,,---,0.00,VWS V14.01,2013-01-26 04:42:00,
2013-01-25 23:47:00,48.1,45.3,30.23,WNW,292,0.0,0.0,90,0.00,,---,0.00,VWS V14.01,2013-01-26 04:47:00,
2013-01-25 23:50:00,48.1,45.3,30.23,WNW,293,0.0,0.0,90,0.00,,---,0.00,VWS V14.01,2013-01-26 04:50:00,
2013-01-25 23:52:00,47.9,45.1,30.23,WNW,292,0.0,0.0,90,0.00,,---,0.00,VWS V14.01,2013-01-26 04:52:00,
2013-01-25 23:57:00,47.9,45.4,30.23,WNW,293,0.0,0.0,91,0.00,,---,0.00,VWS V14.01,2013-01-26 04:57:00,